Location: Bad Salzschlirf
(50.3750°N, 9.3000°E)
Time: 15:00:01
(UTC+01:00)

ISS - Visible Passes

Search period start: 20 February 2018 00:00
Search period end: 02 March 2018 00:00
Orbit: 403 x 407 km, 51.6° (Epoch: 21 February)

Date Brightness Start Highest point End Pass type
(mag) Time Alt. Az. Time Alt. Az. Time Alt. Az.
26 Feb -0.8 06:25:33 10° SSE 06:27:05 13° SE 06:28:38 10° ESE visible
28 Feb -1.6 06:16:00 10° SSW 06:18:40 23° SE 06:21:22 10° E visible
01 Mar -1.1 05:24:37 10° S 05:26:35 15° SE 05:28:34 10° ESE visible
